Dewpoint
52 53 52 36 14 11 3 3 22 21 20 29 32 32 33 41 38 36 56 52 51 53 61 69 70 70 70 70 69 68 68 68 68 69 69 68 69 69 69 68 67 66 65 66 68 68 66 64 63
50 51 42 29 8 3 -1 9 15 21 33 41 39 40 38 35 44 52 52 43 44 44 53 61 69 70 70 70 69 68 67 67 67 68 68 66 67 65 67 66 65 64 63 65 67 68 67 65 64
49 44 28 16 6 1 2 6 17 28 32 38 34 39 43 40 45 50 46 40 42 42 46 52 61 68 70 69 69 69 68 68 68 69 68 68 67 66 66 65 64 63 65 66 66 68 67 65 65
47 37 32 16 8 11 6 19 28 28 30 33 33 36 42 44 49 46 40 38 39 38 40 51 57 57 62 69 69 69 69 69 68 69 68 68 67 66 66 65 66 66 65 65 66 68 67 66 66
38 31 13 13 13 17 19 23 29 27 28 28 30 33 40 42 41 41 37 37 37 38 39 43 54 55 56 58 62 68 69 69 69 69 69 68 67 66 66 67 66 66 66 65 67 69 67 66 66
30 27 11 7 9 16 21 27 25 26 27 26 26 32 39 40 38 38 38 38 38 38 41 41 49 54 54 56 56 57 61 67 69 69 69 68 68 67 67 68 68 67 67 67 68 69 67 66 66
28 18 15 14 11 16 20 25 24 23 25 26 27 32 36 39 39 38 37 39 40 40 41 42 43 46 50 53 55 56 56 58 63 69 69 68 68 68 68 69 69 67 68 69 69 69 68 68 67
32 24 17 19 8 14 23 26 26 25 24 27 27 26 31 39 38 38 39 40 41 42 41 42 43 45 46 47 53 53 54 54 53 62 69 68 68 68 68 70 69 68 70 69 69 69 68 68 68
37 19 14 14 20 19 28 29 27 30 29 27 27 27 29 36 38 38 40 41 40 41 42 44 42 45 46 47 49 51 50 51 49 49 62 69 68 67 67 65 66 68 70 69 69 68 68 68 68
28 19 16 27 29 27 30 32 31 29 26 28 28 29 32 36 38 38 38 37 38 38 40 43 44 44 45 43 47 47 48 48 48 47 47 57 68 68 67 67 66 69 69 69 69 68 68 68 62
31 17 29 29 32 34 32 31 31 30 28 27 27 27 30 34 37 38 39 39 38 39 41 43 45 45 44 43 44 44 44 45 45 47 47 47 56 68 68 68 67 66 67 67 67 67 66 63 60
27 31 32 33 35 35 33 33 31 31 30 30 32 32 32 32 33 36 37 38 38 39 41 45 45 45 44 44 43 44 44 45 46 45 46 46 47 58 67 67 67 66 65 65 64 66 65 64 61
32 33 34 34 34 32 31 29 27 25 26 29 31 32 34 35 35 37 38 40 41 41 42 45 46 46 45 45 45 45 45 45 45 48 47 46 47 47 54 65 67 67 66 66 64 63 63 64 63
33 32 30 30 30 31 30 27 27 26 29 30 31 32 33 34 35 36 38 40 41 41 43 45 44 45 45 45 45 45 45 46 47 49 49 49 46 48 48 53 65 68 67 66 66 65 65 62 61
35 32 26 29 31 28 30 24 25 27 26 26 31 33 33 35 35 36 37 38 41 41 43 45 45 44 44 44 45 46 46 46 47 48 49 50 48 46 48 48 50 64 68 67 66 66 66 65 64
27 28 19 23 25 24 28 18 20 22 23 24 23 26 33 35 35 32 36 39 41 43 44 44 43 44 44 44 45 46 46 47 48 48 48 49 50 48 47 48 48 51 60 67 67 66 65 64 64
22 15 20 20 26 26 24 20 20 22 23 24 25 24 25 29 32 30 33 40 43 44 43 44 46 45 45 47 48 48 49 49 48 49 49 49 50 50 49 46 48 49 52 63 66 65 65 64 63
17 18 18 19 20 21 20 20 22 23 23 24 24 25 23 25 28 29 32 39 43 43 44 44 45 46 47 49 49 49 49 49 49 50 50 50 50 50 51 49 47 49 49 51 62 64 65 64 63
24 22 21 19 20 21 18 22 22 23 21 20 21 25 25 24 28 30 33 39 42 42 43 43 46 48 49 49 49 49 49 49 50 50 51 52 52 51 51 51 50 49 50 50 51 56 63 64 63
23 21 16 17 19 22 22 22 22 23 22 22 24 25 26 26 28 29 31 39 41 40 42 45 47 49 49 50 50 50 50 50 50 51 51 51 51 52 52 52 51 51 50 51 52 52 57 62 63
18 18 16 17 21 22 24 13 18 20 23 27 26 26 27 28 28 26 29 36 41 41 42 46 47 48 49 50 50 51 51 51 50 51 50 51 51 52 53 52 52 52 52 52 53 53 54 56 60
16 21 22 21 20 16 24 12 16 18 22 26 27 30 32 28 29 30 32 34 39 41 45 44 46 47 48 49 49 50 50 50 50 50 51 51 52 52 51 53 53 53 53 53 54 54 56 57 56
18 23 22 23 22 22 19 18 10 15 18 22 27 31 33 34 32 32 35 39 41 42 44 45 45 46 47 47 48 49 50 50 51 51 51 52 53 53 53 53 53 53 53 53 53 55 55 56 57
24 21 21 26 23 18 18 16 6 12 18 21 23 28 34 36 37 38 40 40 40 42 43 44 44 44 45 46 47 49 50 51 50 51 51 52 52 53 53 52 54 54 54 53 54 55 55 56 56
20 18 18 16 17 10 16 15 13 12 18 22 25 29 32 36 37 38 38 39 39 41 42 43 42 42 43 44 46 48 50 51 50 51 51 51 52 53 53 53 53 53 54 54 54 54 55 56 56
22 22 14 5 9 10 14 11 4 14 17 28 30 31 34 34 37 37 38 39 40 40 41 41 41 41 42 43 45 47 49 50 50 50 51 51 51 52 53 54 54 54 54 54 54 54 55 55 56
19 20 25 20 20 14 12 7 8 13 20 22 26 31 33 34 35 35 37 38 38 39 39 41 41 40 40 42 44 46 48 50 50 50 50 50 52 52 53 54 54 55 55 55 55 55 55 55 55
22 24 18 21 14 7 4 5 5 5 12 19 22 25 26 29 32 34 35 37 38 38 39 40 40 40 40 41 42 43 47 49 50 50 50 49 50 50 51 53 54 54 54 54 55 54 55 54 54
20 20 21 23 19 14 10 12 13 9 13 17 20 17 16 18 24 24 30 32 34 36 38 40 40 40 40 41 41 42 45 48 50 50 49 49 49 49 50 51 54 54 54 54 54 54 54 53 53
22 18 19 14 16 17 17 15 16 14 19 21 15 13 13 16 17 18 22 25 28 34 36 38 40 40 40 40 41 42 43 45 49 49 49 49 48 48 49 49 51 54 54 54 54 53 53 53 53
Wind_Speed
5 4 2 1 5 4 7 4 2 4 4 3 1 6 6 6 3 0 6 5 6 7 7 8 8 13 13 14 13 10 8 6 7 6 7 7 7 7 7 7 8 8 7 5 5 16 14 14 12
4 2 0 1 5 9 8 2 6 3 1 1 2 4 5 4 2 7 9 6 6 7 7 9 8 9 12 10 11 11 10 9 9 9 7 9 9 9 9 9 9 9 10 8 5 12 13 13 12
1 4 3 3 5 12 7 2 4 2 3 5 3 3 3 0 3 11 8 8 7 8 7 10 11 10 10 10 9 11 11 10 10 10 9 9 9 10 10 10 10 9 9 8 7 13 14 14 13
0 2 3 6 11 5 4 3 2 4 4 6 4 5 3 0 9 4 10 7 6 7 8 10 9 10 9 7 7 10 12 12 12 12 12 11 10 11 11 10 9 10 8 8 8 13 16 15 14
3 1 5 6 9 4 5 4 4 7 4 5 5 4 3 4 2 8 8 4 4 6 6 7 8 9 9 8 6 4 9 12 13 11 12 13 12 12 11 10 11 10 10 11 9 16 16 16 15
2 1 6 12 9 4 5 4 6 9 8 4 5 7 3 2 8 9 6 4 3 4 4 4 6 7 8 8 7 6 4 2 12 12 12 12 13 13 13 12 14 13 12 12 12 16 16 17 16
1 1 4 6 9 7 2 4 8 9 10 11 2 6 1 7 8 6 4 3 2 2 2 3 3 5 6 7 7 7 7 6 3 6 12 12 14 15 14 13 13 14 13 14 15 18 17 17 17
2 2 4 5 9 7 2 6 5 6 10 4 2 6 5 9 9 5 4 3 2 1 2 1 2 3 3 3 6 6 6 5 5 4 5 12 15 16 16 14 14 14 12 13 16 18 17 18 17
1 4 8 6 4 3 4 6 2 4 9 7 6 8 5 1 6 7 7 7 5 3 2 1 0 1 2 2 3 2 2 4 3 3 1 6 11 15 18 17 15 16 14 13 15 16 16 16 16
1 3 4 2 3 8 11 9 11 8 12 12 15 11 5 2 7 9 10 9 7 6 5 3 2 1 1 1 1 2 2 4 4 5 5 5 9 14 13 15 19 18 17 16 17 17 16 16 15
1 4 1 4 5 6 9 14 10 13 20 18 19 12 11 7 8 9 11 10 10 8 6 6 4 2 3 3 4 3 3 5 5 6 7 8 7 9 14 15 15 16 18 16 17 17 16 17 16
4 5 5 3 4 6 13 11 19 21 26 22 21 15 12 13 14 14 15 16 15 13 12 8 7 5 4 4 5 6 6 6 7 8 8 9 10 10 10 13 16 17 17 19 18 16 18 19 19
6 4 5 10 14 18 20 24 25 27 24 25 26 23 22 21 22 22 21 17 15 14 14 12 9 7 6 6 6 6 8 8 8 8 10 11 11 13 12 13 16 16 16 17 18 19 19 20 20
3 9 16 13 15 13 16 22 18 21 17 23 24 27 26 25 25 21 18 19 18 17 13 11 10 8 7 8 8 9 9 9 9 10 11 12 13 13 14 15 14 15 18 16 16 18 18 19 20
6 10 12 8 4 7 11 24 22 22 18 22 25 23 21 20 19 20 22 21 16 17 14 12 9 8 8 9 9 10 10 11 11 11 12 13 14 16 17 17 17 15 15 22 20 19 16 15 17
5 4 7 1 11 7 3 29 23 19 21 28 27 25 15 15 14 10 12 16 12 12 13 10 8 8 9 10 10 11 11 12 13 12 12 13 15 17 18 18 19 18 17 13 16 18 20 20 19
2 10 11 12 4 11 8 33 26 31 30 31 29 27 25 19 18 13 10 12 11 12 10 9 8 9 9 10 10 12 13 13 13 13 13 14 15 16 18 19 19 20 20 17 19 19 18 20 21
9 11 8 17 12 23 29 37 35 31 23 25 28 26 24 21 19 13 8 10 11 11 10 9 9 8 8 8 9 10 11 12 11 13 14 14 14 16 17 19 20 20 21 21 20 19 18 21 19
10 15 21 22 13 22 20 33 34 26 18 17 17 18 19 19 13 11 9 10 12 11 10 9 7 6 6 7 8 9 10 10 12 12 15 16 16 16 17 18 19 21 23 23 24 23 19 20 19
12 18 20 11 14 23 23 34 22 13 16 16 12 10 13 14 13 13 12 11 11 10 8 7 7 6 5 6 7 7 9 11 13 14 15 17 18 18 18 18 19 20 21 24 25 24 21 22 19
14 15 14 20 27 7 21 7 11 11 11 13 7 5 8 10 12 12 11 10 8 8 7 5 5 6 7 7 7 8 9 10 12 14 13 13 15 17 19 20 19 19 20 21 24 24 25 22 22
12 1 10 21 17 7 13 9 9 16 13 16 17 10 5 5 7 7 7 6 5 5 4 5 6 7 7 6 8 10 12 14 14 16 15 16 17 18 17 19 21 21 19 22 22 22 23 23 25
9 18 19 12 6 8 4 6 8 11 16 19 17 13 9 4 0 1 2 3 3 4 5 6 8 8 7 8 9 10 12 13 14 14 16 17 17 17 18 18 20 21 20 21 23 23 24 24 24
17 13 6 2 2 3 5 6 8 13 15 19 18 12 7 7 8 5 3 3 6 5 6 7 9 10 8 8 9 10 13 15 15 14 14 15 15 15 16 17 18 19 21 22 22 23 26 25 26
15 12 6 4 4 5 2 7 10 16 12 14 17 14 8 2 2 4 6 6 6 7 8 9 10 10 8 9 10 11 13 14 15 15 14 15 15 15 16 17 17 18 21 23 23 23 25 27 29
7 8 5 6 8 10 7 4 2 9 15 6 6 7 6 5 5 6 6 6 8 9 10 10 10 10 8 8 10 11 13 13 14 14 15 15 16 17 17 18 19 19 20 21 23 22 24 25 27
3 5 3 3 1 6 6 6 10 2 4 8 9 8 8 8 8 9 9 10 11 11 11 10 10 10 9 9 10 11 11 12 14 15 15 14 15 16 16 19 20 20 21 21 21 21 23 24 24
1 3 1 2 7 8 7 9 7 1 5 9 12 13 13 12 11 10 12 13 13 13 13 12 11 11 10 10 9 10 12 12 13 12 14 16 17 16 16 19 18 19 21 21 20 20 20 23 23
3 2 2 1 3 5 9 10 3 5 5 9 11 17 19 17 16 16 14 13 13 13 14 14 13 12 12 12 11 10 11 12 12 10 13 15 16 16 17 16 17 17 18 18 17 19 21 23 23
2 2 4 2 1 5 4 14 3 4 4 7 18 19 18 15 15 15 15 17 17 15 15 16 16 15 15 12 11 12 11 11 10 9 12 13 14 16 16 15 16 15 16 19 19 21 21 22 22
Wind_Direction
348 349 305 245 200 234 231 222 283 208 217 197 208 220 222 330 215 289 115 100 97 86 68 81 165 176 176 175 169 170 186 169 163 177 172 177 173 166 173 173 186 200 202 199 147 151 150 142 146
0 318 81 144 245 232 234 225 235 230 333 101 204 234 236 220 110 124 142 117 109 94 85 72 76 183 185 188 168 173 190 193 198 187 189 189 193 192 190 190 195 203 201 193 169 152 147 143 145
33 11 205 221 233 244 265 237 257 231 210 217 226 239 284 243 156 144 113 126 117 98 86 69 56 68 181 189 192 187 193 203 210 192 186 204 198 196 192 195 193 197 205 193 201 163 147 148 156
326 151 108 240 239 245 256 346 293 243 225 224 251 235 217 129 154 153 136 133 123 101 89 77 67 72 81 99 197 207 208 213 219 205 188 207 204 201 200 199 196 200 208 205 200 169 159 159 162
47 217 217 232 246 253 254 298 283 254 252 227 222 242 239 173 173 155 151 153 131 99 82 83 62 73 76 81 91 94 220 221 226 226 206 203 209 206 205 204 199 207 213 215 206 178 172 168 168
105 281 235 243 249 267 281 283 273 251 248 237 237 256 248 129 167 165 163 153 108 98 83 82 78 62 70 73 72 73 78 32 230 223 222 218 209 211 212 215 204 204 212 215 216 191 181 177 177
114 266 275 288 282 286 270 323 249 279 265 247 266 243 267 190 173 172 184 164 137 90 82 77 73 82 78 59 54 50 49 41 12 233 226 226 217 213 216 222 202 208 216 228 214 195 182 184 187
91 232 233 233 268 279 2 324 304 282 285 338 262 252 235 192 175 187 200 215 232 171 143 105 89 64 75 71 48 39 37 27 16 352 240 225 225 221 219 215 212 214 216 214 194 185 186 190 194
205 225 255 265 249 308 358 340 304 289 275 283 265 278 343 260 173 191 201 205 214 224 224 207 114 70 51 83 57 16 13 351 329 319 337 248 223 227 223 219 216 209 206 204 194 189 193 196 204
288 264 295 335 297 293 304 302 311 295 270 270 255 249 258 236 216 222 219 227 230 240 235 246 240 196 9 347 349 338 326 314 300 287 280 248 242 228 235 230 212 213 207 206 207 199 197 198 210
123 254 218 262 261 282 287 284 277 275 272 265 268 275 230 219 228 243 251 254 259 264 251 235 226 248 282 299 313 289 290 287 278 278 270 265 252 243 227 228 221 221 217 217 214 211 210 213 220
268 245 244 271 257 262 264 277 267 257 258 264 261 266 257 240 241 246 251 254 259 255 248 225 223 233 260 282 284 299 296 292 279 263 264 258 253 238 242 232 223 216 220 219 219 217 214 220 220
258 287 271 271 276 273 274 266 267 269 266 261 265 261 254 254 261 262 251 246 246 239 230 223 211 228 254 271 280 283 286 287 288 274 263 255 250 251 250 237 234 225 212 216 225 219 217 218 223
294 282 279 280 275 268 269 271 270 259 263 263 262 261 250 253 253 256 258 252 236 230 226 216 221 226 249 266 272 280 283 282 276 272 265 257 252 250 246 247 239 235 226 216 213 217 225 228 224
293 297 293 259 270 290 305 273 252 272 277 272 267 262 268 255 241 250 253 260 257 233 218 214 226 243 249 266 275 279 280 278 273 267 265 260 253 249 247 245 244 229 237 229 224 220 212 219 233
285 274 330 83 307 293 297 286 301 295 290 282 267 265 262 252 213 249 248 239 242 223 216 213 229 254 269 273 276 276 276 275 271 267 264 257 254 249 249 246 241 243 228 231 215 215 212 219 221
16 306 308 323 300 309 271 293 300 301 293 281 268 263 262 256 251 256 240 220 217 212 212 224 240 253 266 273 277 278 274 269 270 269 265 261 255 249 244 246 246 238 236 228 226 215 217 217 218
309 314 294 307 305 308 295 286 296 306 303 288 274 262 255 250 252 261 243 210 205 210 224 233 236 247 259 272 274 275 274 274 271 271 269 267 258 251 245 244 244 243 241 237 225 228 217 216 218
293 292 297 304 325 317 305 301 303 313 312 312 298 251 252 248 250 253 230 208 205 215 230 242 249 254 255 272 282 283 282 288 282 277 276 272 265 256 248 244 242 238 239 238 239 230 228 223 217
288 298 308 315 318 317 308 302 303 327 330 320 323 257 253 267 258 247 221 202 212 218 221 241 253 265 263 267 275 278 292 289 292 289 281 270 268 263 256 246 243 237 237 238 238 236 230 233 214
297 285 305 311 321 295 322 296 343 4 351 7 14 298 266 261 272 267 227 210 203 219 230 235 255 274 275 273 277 273 278 273 275 280 282 280 269 263 260 253 246 243 239 238 236 236 235 235 223
314 260 305 310 325 328 6 306 335 343 8 25 26 33 354 294 258 269 268 233 220 235 243 261 270 277 278 279 281 282 284 285 284 286 283 283 280 278 264 256 249 243 241 239 237 236 236 234 234
275 308 306 302 285 307 5 295 317 352 355 6 17 27 55 40 222 163 241 239 217 225 245 268 277 280 283 282 285 292 292 291 287 279 277 273 273 264 256 256 250 245 242 242 240 239 236 234 237
292 302 295 209 290 277 7 345 327 358 339 330 342 3 31 97 118 133 176 217 243 243 242 245 257 273 280 282 292 296 298 304 301 291 283 274 272 271 261 255 252 249 247 243 240 240 241 238 236
336 332 339 329 346 316 350 304 268 324 341 324 318 329 337 329 163 180 204 220 234 243 251 253 254 268 287 300 301 303 303 308 304 300 291 294 285 273 268 262 252 253 248 244 241 239 237 239 240
358 357 28 315 322 308 304 260 359 317 316 335 326 327 326 318 289 277 269 262 259 255 254 259 264 276 284 293 298 303 305 302 309 315 307 295 289 286 282 264 261 260 256 250 245 243 243 244 242
8 32 347 294 274 282 278 279 281 334 34 21 17 359 347 327 306 288 275 265 266 261 260 260 265 274 285 292 295 293 295 302 300 304 301 296 288 287 287 280 259 256 255 250 244 245 246 248 245
335 121 343 9 327 305 287 284 256 199 351 355 0 352 342 325 303 286 277 270 263 258 258 251 252 260 270 279 281 287 289 290 291 297 302 311 308 299 289 289 264 256 253 252 246 249 245 249 249
168 184 137 225 283 301 310 288 234 273 315 319 327 324 322 313 303 300 286 276 266 266 261 258 255 255 261 265 268 274 281 284 286 298 315 316 313 313 307 305 286 258 252 251 241 240 246 247 246
295 259 217 296 250 238 281 275 260 279 305 311 319 321 319 313 307 303 290 279 271 262 258 252 251 248 245 249 259 269 272 277 292 311 312 320 325 324 320 313 311 272 253 252 249 249 248 249 245